Regional Weather Roundup
Issued by NWS

Home | Current Version | Previous Version | Graphics & Text | Print | Product List | Glossary On
Versions: 1 2 3 4 5 6 7 8 9 10 11 12 13 14 15 16 17 18 19 20 21 22 23 24 25 26 27 28 29 30 31 32 33 34 35 36 37 38 39 40 41 42 43 44 45 46 47 48 49 50
000
ASUS43 KBIS 311710
RWRND

NORTH DAKOTA REGIONAL WEATHER ROUNDUP
NATIONAL WEATHER SERVICE BISMARCK ND
1100 AM CST SAT JAN 31 2015

NOTE: "FAIR" INDICATES FEW OR NO CLOUDS BELOW 12,000 FEET WITH NO
SIGNIFICANT WEATHER AND/OR OBSTRUCTIONS TO VISIBILITY.


NDZ001>003-009>011-017-311800-
NORTHWEST NORTH DAKOTA

CITY           SKY/WX    TMP DP  RH WIND       PRES   REMARKS
WILLISTON      LGT SNOW  11   5  77 E15G25    30.29R WCI  -5
MINOT          LGT SNOW   5  -1  76 NE12      30.37S WCI -11
MINOT AFB      LGT SNOW   4   1  87 NE15      30.38S FOG     WCI -15
$$

NDZ018>021-031>035-040>046-311800-
SOUTHWEST NORTH DAKOTA

CITY           SKY/WX    TMP DP  RH WIND       PRES   REMARKS
BISMARCK       LGT SNOW  13   7  77 E18       30.29R WCI  -4
DICKINSON      LGT SNOW  18  14  84 E18       30.14R FOG     WCI   2
GARRISON         N/A      9   2  73 E17G23    30.31R WCI  -9
HETTINGER ARPT FRZ RAIN  21  19  92 E17G25    30.11R VSB 3/4 WCI   7
$$

NDZ004>008-012>016-024-026-027-054-311800-
NORTHEAST NORTH DAKOTA

CITY           SKY/WX    TMP DP  RH WIND       PRES   REMARKS
GRAND FORKS    PTSUNNY    3  -7  63 N21G28    30.47R WCI -18
GRND FRKS AFB  MOSUNNY    2  -9  60 NE20G25   30.46R WCI -19
DEVILS LAKE    MOSUNNY    1  -8  66 NE16      30.39R WCI -18
$$

NDZ022-023-025-028>030-036>039-047>053-311800-
SOUTHEAST NORTH DAKOTA

CITY           SKY/WX    TMP DP  RH WIND       PRES   REMARKS
FARGO          SUNNY     11  -1  58 N21G28    30.38R WCI  -8
JAMESTOWN      PTSUNNY   11   4  73 NE16      30.33R WCI  -6
$$



USA.gov is the U.S. government's official web portal to all federal, state and local government web resources and services.